Location: Foligno
(42.9600°N, 12.7050°E)
Time: 03:34:41
(UTC+02:00)

ISS - Pass Details

Date: 19 May 2018
Orbit: 402 x 407 km, 51.6° (Epoch: 23 May)

Event Time Altitude Azimuth Distance (km) Brightness Sun altitude
Exits shadow 00:57:33 18° 23° (NNE) 1,061 -1.1 -27.3°
Drops below altitude 10° 00:58:52 10° 41° (NE) 1,458 -0.5 -27.3°
Sets 01:01:11 0° 55° (NE) 2,319 0.5 -27.3°
